When you browse on this site, cookies collect data to enhance your experience and personalize the content and advertising you see.
Visit our Privacy Policy to learn more. By continuing to use the site, you agree to this use of cookies and data.
  • Em Portugal
  • Lista de países
  • Para 7 dias
  • Temperatura da água
  • Mapas de satélite
  • Mapa do tempo
  • Widgets de tempo
  • user-avatar
    Iniciar Sessão

    Previsão horária em Carryduff

    Hoje, 17 Julho, Quarta-feira

    Tempo Temperatura Precipitação Vento Pressão Humidade
    00:00 +15°C° 0 mm 2 m/s 761 mmHg 93%
    01:00 +15°C° 0 mm 2 m/s 760 mmHg 92%
    02:00 +15°C° 0 mm 1 m/s 760 mmHg 92%
    03:00 +15°C° 0 mm 1 m/s 760 mmHg 92%
    04:00 +15°C° 0 mm 1 m/s 759 mmHg 91%
    05:00 +16°C° 0 mm 1 m/s 759 mmHg 89%
    06:00 +18°C° 0 mm 1 m/s 759 mmHg 88%
    07:00 +19°C° 0 mm 1 m/s 759 mmHg 84%
    08:00 +19°C° 0 mm 2 m/s 759 mmHg 80%
    09:00 +19°C° 0 mm 2 m/s 759 mmHg 76%
    10:00 +20°C° 0 mm 3 m/s 759 mmHg 75%
    11:00 +20°C° 0 mm 3 m/s 759 mmHg 73%
    12:00 +20°C° 0 mm 4 m/s 759 mmHg 72%
    13:00 +20°C° 0 mm 4 m/s 758 mmHg 73%
    14:00 +20°C° 0 mm 4 m/s 758 mmHg 74%
    15:00 +19°C° 0 mm 5 m/s 758 mmHg 75%
    16:00 +19°C° 0 mm 5 m/s 758 mmHg 77%
    17:00 +18°C° 0 mm 4 m/s 757 mmHg 80%
    18:00 +18°C° 0 mm 4 m/s 757 mmHg 82%
    19:00 +17°C° 0 mm 4 m/s 757 mmHg 84%
    20:00 +17°C° 0 mm 4 m/s 757 mmHg 87%
    21:00 +16°C° 0 mm 3 m/s 757 mmHg 89%
    22:00 +15°C° 0 mm 4 m/s 756 mmHg 90%
    23:00 +15°C° 0 mm 4 m/s 756 mmHg 91%

    Amanhã, 18 Julho, Quinta-feira

    Tempo Temperatura Precipitação Vento Pressão Humidade
    00:00 +17°C° 0 mm 4 m/s 756 mmHg 91%
    01:00 +17°C° 0.3 mm 4 m/s 755 mmHg 93%
    02:00 +17°C° 0.3 mm 4 m/s 755 mmHg 95%
    03:00 +17°C° 0.3 mm 4 m/s 755 mmHg 97%
    04:00 +17°C° 0.4 mm 4 m/s 755 mmHg 96%
    05:00 +16°C° 0.4 mm 5 m/s 754 mmHg 96%
    06:00 +16°C° 0.4 mm 5 m/s 754 mmHg 96%
    07:00 +17°C° 0.1 mm 5 m/s 755 mmHg 92%
    08:00 +17°C° 0.1 mm 5 m/s 755 mmHg 88%
    09:00 +19°C° 0.1 mm 5 m/s 755 mmHg 84%
    10:00 +19°C° 0 mm 5 m/s 755 mmHg 78%
    11:00 +20°C° 0 mm 6 m/s 755 mmHg 73%
    12:00 +21°C° 0 mm 6 m/s 755 mmHg 68%
    13:00 +20°C° 0 mm 6 m/s 756 mmHg 66%
    14:00 +20°C° 0 mm 6 m/s 756 mmHg 65%
    15:00 +20°C° 0 mm 6 m/s 756 mmHg 64%
    16:00 +19°C° 0 mm 6 m/s 756 mmHg 67%
    17:00 +19°C° 0 mm 6 m/s 756 mmHg 69%
    18:00 +17°C° 0 mm 6 m/s 756 mmHg 72%
    19:00 +16°C° 0 mm 5 m/s 756 mmHg 79%
    20:00 +15°C° 0 mm 4 m/s 757 mmHg 85%
    21:00 +13°C° 0 mm 3 m/s 757 mmHg 92%
    22:00 +13°C° 0 mm 3 m/s 757 mmHg 93%
    23:00 +13°C° 0 mm 3 m/s 757 mmHg 93%

    Depois de amanhã, 19 Julho, Sexta-feira

    Tempo Temperatura Precipitação Vento Pressão Humidade
    00:00 +13°C° 0 mm 3 m/s 757 mmHg 94%
    01:00 +13°C° 0 mm 3 m/s 757 mmHg 94%
    02:00 +13°C° 0 mm 3 m/s 757 mmHg 94%
    03:00 +13°C° 0 mm 3 m/s 757 mmHg 94%
    04:00 +13°C° 0 mm 3 m/s 757 mmHg 93%
    05:00 +14°C° 0 mm 3 m/s 757 mmHg 92%
    06:00 +14°C° 0 mm 3 m/s 757 mmHg 91%
    07:00 +15°C° 0 mm 4 m/s 757 mmHg 87%
    08:00 +17°C° 0 mm 4 m/s 757 mmHg 83%
    09:00 +18°C° 0 mm 4 m/s 757 mmHg 79%
    10:00 +17°C° 0.2 mm 5 m/s 756 mmHg 80%
    11:00 +17°C° 0.2 mm 5 m/s 756 mmHg 82%
    12:00 +17°C° 0.2 mm 6 m/s 756 mmHg 83%
    13:00 +19°C° 0.3 mm 6 m/s 756 mmHg 86%
    14:00 +19°C° 0.3 mm 6 m/s 755 mmHg 88%
    15:00 +19°C° 0.3 mm 6 m/s 755 mmHg 90%
    16:00 +19°C° 2.8 mm 6 m/s 755 mmHg 92%
    17:00 +19°C° 2.8 mm 5 m/s 754 mmHg 94%
    18:00 +19°C° 2.8 mm 5 m/s 754 mmHg 95%
    19:00 +17°C° 2.4 mm 5 m/s 754 mmHg 96%
    20:00 +18°C° 2.4 mm 4 m/s 753 mmHg 97%
    21:00 +18°C° 2.4 mm 4 m/s 753 mmHg 98%
    22:00 +18°C° 1.2 mm 4 m/s 753 mmHg 98%
    23:00 +18°C° 1.2 mm 4 m/s 752 mmHg 98%

    20 Julho, Sábado

    Tempo Temperatura Precipitação Vento Pressão Humidade
    00:00 +17°C° 1.2 mm 4 m/s 752 mmHg 98%
    01:00 +17°C° 0.6 mm 4 m/s 752 mmHg 97%
    02:00 +17°C° 0.6 mm 4 m/s 752 mmHg 97%
    03:00 +17°C° 0.6 mm 4 m/s 752 mmHg 97%
    04:00 +17°C° 0.1 mm 4 m/s 752 mmHg 96%
    05:00 +17°C° 0.1 mm 4 m/s 752 mmHg 94%
    06:00 +17°C° 0.1 mm 4 m/s 752 mmHg 93%
    07:00 +17°C° 0.2 mm 5 m/s 752 mmHg 91%
    08:00 +17°C° 0.2 mm 6 m/s 752 mmHg 88%
    09:00 +18°C° 0.2 mm 7 m/s 752 mmHg 85%
    10:00 +20°C° 0.4 mm 7 m/s 753 mmHg 85%
    11:00 +20°C° 0.4 mm 7 m/s 753 mmHg 84%
    12:00 +20°C° 0.4 mm 7 m/s 753 mmHg 83%
    13:00 +20°C° 0.3 mm 8 m/s 753 mmHg 82%
    14:00 +20°C° 0.3 mm 8 m/s 753 mmHg 82%
    15:00 +20°C° 0.3 mm 8 m/s 754 mmHg 81%
    16:00 +20°C° 0.1 mm 8 m/s 754 mmHg 81%
    17:00 +20°C° 0.1 mm 8 m/s 755 mmHg 81%
    18:00 +18°C° 0.1 mm 8 m/s 755 mmHg 81%
    19:00 +17°C° 0 mm 7 m/s 756 mmHg 85%
    20:00 +16°C° 0 mm 6 m/s 757 mmHg 89%
    21:00 +15°C° 0 mm 5 m/s 757 mmHg 93%
    22:00 +14°C° 0 mm 5 m/s 758 mmHg 94%
    23:00 +14°C° 0 mm 4 m/s 758 mmHg 94%

    21 Julho, Domingo

    Tempo Temperatura Precipitação Vento Pressão Humidade
    00:00 +14°C° 0 mm 3 m/s 759 mmHg 95%
    01:00 +13°C° 0 mm 3 m/s 759 mmHg 94%
    02:00 +14°C° 0 mm 2 m/s 759 mmHg 94%
    03:00 +13°C° 0 mm 2 m/s 760 mmHg 94%
    04:00 +14°C° 0 mm 2 m/s 760 mmHg 93%
    05:00 +15°C° 0 mm 2 m/s 761 mmHg 92%
    06:00 +15°C° 0 mm 2 m/s 761 mmHg 91%
    07:00 +17°C° 0 mm 2 m/s 762 mmHg 84%
    08:00 +18°C° 0 mm 2 m/s 762 mmHg 76%
    09:00 +19°C° 0 mm 2 m/s 763 mmHg 69%
    10:00 +20°C° 0 mm 2 m/s 763 mmHg 67%
    11:00 +21°C° 0 mm 2 m/s 763 mmHg 64%
    12:00 +23°C° 0 mm 2 m/s 763 mmHg 62%
    13:00 +23°C° 0 mm 2 m/s 763 mmHg 62%
    14:00 +23°C° 0 mm 2 m/s 763 mmHg 63%
    15:00 +23°C° 0 mm 2 m/s 763 mmHg 64%
    16:00 +23°C° 0 mm 2 m/s 763 mmHg 67%
    17:00 +23°C° 0 mm 2 m/s 763 mmHg 70%
    18:00 +21°C° 0 mm 2 m/s 763 mmHg 73%
    19:00 +20°C° 0 mm 2 m/s 763 mmHg 79%
    20:00 +18°C° 0 mm 2 m/s 763 mmHg 84%
    21:00 +16°C° 0 mm 1 m/s 763 mmHg 89%
    22:00 +15°C° 0 mm 2 m/s 763 mmHg 90%
    23:00 +15°C° 0 mm 2 m/s 763 mmHg 90%

    22 Julho, Segunda-feira

    Tempo Temperatura Precipitação Vento Pressão Humidade
    00:00 +14°C° 0 mm 2 m/s 763 mmHg 91%
    01:00 +14°C° 0 mm 2 m/s 763 mmHg 91%
    02:00 +14°C° 0 mm 2 m/s 763 mmHg 92%
    03:00 +13°C° 0 mm 2 m/s 762 mmHg 93%
    04:00 +14°C° 0 mm 2 m/s 762 mmHg 91%
    05:00 +15°C° 0 mm 2 m/s 762 mmHg 90%
    06:00 +15°C° 0 mm 2 m/s 762 mmHg 89%
    07:00 +17°C° 0 mm 2 m/s 762 mmHg 85%
    08:00 +18°C° 0 mm 2 m/s 762 mmHg 80%
    09:00 +20°C° 0 mm 3 m/s 762 mmHg 75%
    10:00 +21°C° 0 mm 3 m/s 762 mmHg 73%
    11:00 +24°C° 0 mm 3 m/s 762 mmHg 71%
    12:00 +25°C° 0 mm 4 m/s 762 mmHg 69%
    13:00 +25°C° 0 mm 4 m/s 762 mmHg 69%
    14:00 +25°C° 0 mm 4 m/s 762 mmHg 69%
    15:00 +26°C° 0 mm 5 m/s 762 mmHg 68%
    16:00 +25°C° 0 mm 4 m/s 761 mmHg 71%
    17:00 +25°C° 0 mm 4 m/s 761 mmHg 73%
    18:00 +23°C° 0 mm 4 m/s 761 mmHg 75%
    19:00 +21°C° 0 mm 3 m/s 761 mmHg 81%
    20:00 +20°C° 0 mm 2 m/s 761 mmHg 86%
    21:00 +19°C° 0 mm 1 m/s 761 mmHg 91%
    22:00 +19°C° 0 mm 1 m/s 761 mmHg 91%
    23:00 +18°C° 0 mm 1 m/s 761 mmHg 91%
    Mostrar mais